TimeEST,TemperatureF,Dew PointF,Humidity,Sea Level PressureIn,VisibilityMPH,Wind Direction,Wind SpeedMPH,Gust SpeedMPH,PrecipitationIn,Events,Conditions,WindDirDegrees,DateUTC
12:11 AM,30.2,21.2,69,29.77,10.0,NNE,13.8,23.0,N/A,,Overcast,30,2013-03-06 05:11:00
12:52 AM,28.9,21.9,75,29.79,10.0,NNE,17.3,-,N/A,,Mostly Cloudy,20,2013-03-06 05:52:00
1:06 AM,28.4,21.2,74,29.77,10.0,NNE,17.3,25.3,N/A,,Mostly Cloudy,30,2013-03-06 06:06:00
1:52 AM,28.9,21.0,72,29.81,10.0,NNE,15.0,23.0,N/A,,Mostly Cloudy,30,2013-03-06 06:52:00
2:52 AM,28.0,21.0,75,29.83,10.0,NNE,13.8,-,N/A,,Mostly Cloudy,20,2013-03-06 07:52:00
3:52 AM,27.0,21.0,78,29.84,10.0,NNE,15.0,-,N/A,,Mostly Cloudy,20,2013-03-06 08:52:00
4:03 AM,26.6,21.2,80,29.82,10.0,NNE,13.8,21.9,N/A,,Scattered Clouds,20,2013-03-06 09:03:00
4:52 AM,27.0,21.9,81,29.88,10.0,North,10.4,-,N/A,,Partly Cloudy,10,2013-03-06 09:52:00
5:52 AM,26.1,21.9,84,29.92,10.0,North,10.4,-,N/A,,Clear,10,2013-03-06 10:52:00
6:52 AM,26.1,21.9,84,29.96,10.0,North,10.4,-,N/A,,Clear,10,2013-03-06 11:52:00
7:52 AM,27.0,21.9,81,30.01,10.0,North,9.2,-,N/A,,Clear,360,2013-03-06 12:52:00
8:52 AM,30.0,24.1,79,30.04,10.0,North,10.4,-,N/A,,Clear,10,2013-03-06 13:52:00
9:27 AM,32.0,24.8,75,30.03,10.0,NNE,9.2,17.3,N/A,,Mostly Cloudy,20,2013-03-06 14:27:00
9:52 AM,33.1,24.1,70,30.07,10.0,North,9.2,-,N/A,,Overcast,360,2013-03-06 14:52:00
10:52 AM,36.0,25.0,64,30.09,10.0,ENE,6.9,-,N/A,,Overcast,60,2013-03-06 15:52:00
11:49 AM,39.2,26.6,61,30.07,10.0,ENE,8.1,-,N/A,,Mostly Cloudy,70,2013-03-06 16:49:00
11:52 AM,39.2,26.6,61,30.08,10.0,East,9.2,-,N/A,,Mostly Cloudy,80,2013-03-06 16:52:00
12:18 PM,37.4,24.8,60,30.08,10.0,NE,6.9,-,N/A,,Mostly Cloudy,50,2013-03-06 17:18:00
12:30 PM,37.4,24.8,60,30.08,10.0,ENE,8.1,-,N/A,,Scattered Clouds,70,2013-03-06 17:30:00
12:52 PM,41.0,26.1,55,30.11,10.0,NNE,9.2,-,N/A,,Scattered Clouds,30,2013-03-06 17:52:00
1:52 PM,37.9,26.1,62,30.12,10.0,NNW,9.2,-,N/A,,Overcast,340,2013-03-06 18:52:00
2:11 PM,37.4,26.6,65,30.10,10.0,North,8.1,-,N/A,,Overcast,360,2013-03-06 19:11:00
2:52 PM,37.0,27.0,67,30.14,10.0,NNE,5.8,-,N/A,,Overcast,20,2013-03-06 19:52:00
3:52 PM,37.9,27.0,65,30.14,10.0,NW,5.8,-,N/A,,Overcast,310,2013-03-06 20:52:00
4:19 PM,37.4,26.6,65,30.12,10.0,WNW,6.9,-,N/A,,Overcast,290,2013-03-06 21:19:00
4:52 PM,37.9,26.1,62,30.16,10.0,NW,5.8,-,N/A,,Overcast,310,2013-03-06 21:52:00
5:14 PM,37.4,26.6,65,30.14,10.0,NW,9.2,-,N/A,,Overcast,320,2013-03-06 22:14:00
5:52 PM,36.0,26.1,67,30.18,10.0,WNW,9.2,-,N/A,,Overcast,290,2013-03-06 22:52:00
6:49 PM,35.6,26.6,70,30.17,10.0,West,6.9,-,N/A,,Overcast,280,2013-03-06 23:49:00
6:52 PM,35.1,26.1,70,30.19,10.0,WNW,6.9,-,N/A,,Overcast,290,2013-03-06 23:52:00
7:52 PM,34.0,26.1,73,30.21,10.0,WNW,6.9,-,N/A,,Overcast,290,2013-03-07 00:52:00
8:52 PM,34.0,26.1,73,30.22,10.0,WNW,5.8,-,N/A,,Overcast,290,2013-03-07 01:52:00
9:52 PM,33.1,26.1,75,30.22,10.0,West,5.8,-,N/A,,Overcast,280,2013-03-07 02:52:00
10:52 PM,33.1,26.1,75,30.23,9.0,West,4.6,-,N/A,,Overcast,280,2013-03-07 03:52:00
11:52 PM,33.1,26.1,75,30.22,9.0,West,5.8,-,N/A,,Overcast,280,2013-03-07 04:52:00